GW6314 Weather Reports


time (UTC)temp
C
wind
direction
speed
KPH
gust
KPH
rain 1hr
cm
rain 24hr
cm
rain mn
cm
humidity
%
barometer
mb
20260906234855 22 188 20.9 27.4 0.00 0.00 0.00 37 1023.8
20260906234356 22 181 22.5 30.6 0.00 0.00 0.00 38 1023.8
20260906233856 22 184 35.4 40.2 0.00 0.00 0.00 36 1024.2
20260906233355 22 219 22.5 40.2 0.00 0.00 0.00 36 1024.2
20260906232850 22 218 27.4 35.4 0.00 0.00 0.00 37 1023.9
20260906232349 22 203 25.7 30.6 0.00 0.00 0.00 37 1023.9
20260906231844 22 208 33.8 37.0 0.00 0.00 0.00 36 1024.2
20260906231339 22 176 22.5 27.4 0.00 0.00 0.00 37 1024.1
20260906230838 22 183 20.9 29.0 0.00 0.00 0.00 38 1024.1
20260906230334 22 186 25.7 37.0 0.00 0.00 0.00 38 1024.1
20260906225832 22 187 20.9 24.1 0.00 0.00 0.00 37 1024.2
20260906225328 22 198 17.7 24.1 0.00 0.00 0.00 37 1024.5
20260906224823 22 198 17.7 22.5 0.00 0.00 0.00 36 1024.8
20260906224320 23 196 14.5 30.6 0.00 0.00 0.00 38 1024.8
20260906223816 23 181 20.9 29.0 0.00 0.00 0.00 36 1024.7
20260906223312 23 212 16.1 24.1 0.00 0.00 0.00 35 1024.8
20260906222809 23 206 24.1 33.8 0.00 0.00 0.00 34 1024.7
20260906222308 23 193 25.7 30.6 0.00 0.00 0.00 34 1024.8
20260906221806 23 196 24.1 27.4 0.00 0.00 0.00 34 1024.8
20260906221301 23 216 27.4 35.4 0.00 0.00 0.00 33 1024.9
20260906220757 23 198 27.4 35.4 0.00 0.00 0.00 35 1024.8
20260906220251 23 204 24.1 30.6 0.00 0.00 0.00 36 1025.0
20260906215751 23 209 25.7 33.8 0.00 0.00 0.00 35 1025.0
20260906215250 22 205 22.5 27.4 0.00 0.00 0.00 36 1024.8
20260906214749 23 244 22.5 33.8 0.00 0.00 0.00 37 1025.1
20260906214244 22 219 27.4 43.5 0.00 0.00 0.00 36 1025.0
20260906213743 22 203 32.2 41.8 0.00 0.00 0.00 38 1025.0
20260906213243 22 197 27.4 38.6 0.00 0.00 0.00 34 1025.0
20260906212740 22 206 40.2 43.5 0.00 0.00 0.00 34 1024.7
20260906212236 22 183 27.4 37.0 0.00 0.00 0.00 37 1025.0
20260906211735 22 184 20.9 29.0 0.00 0.00 0.00 36 1025.0
20260906211231 23 207 33.8 43.5 0.00 0.00 0.00 33 1025.4
20260906210726 23 193 38.6 51.5 0.00 0.00 0.00 33 1025.3
20260906210221 23 204 38.6 43.5 0.00 0.00 0.00 35 1025.4
20260906205716 23 202 29.0 41.8 0.00 0.00 0.00 33 1025.3
20260906205212 22 192 25.7 41.8 0.00 0.00 0.00 34 1025.5
20260906204707 22 189 30.6 41.8 0.00 0.00 0.00 36 1025.3
20260906204206 22 196 30.6 40.2 0.00 0.00 0.00 33 1025.4
20260906203706 22 217 33.8 37.0 0.00 0.00 0.00 35 1025.7
20260906203201 22 189 33.8 43.5 0.00 0.00 0.00 33 1025.6
20260906202658 22 204 20.9 35.4 0.00 0.00 0.00 37 1025.5
20260906202157 22 207 30.6 40.2 0.00 0.00 0.00 33 1025.9
20260906201653 22 206 37.0 41.8 0.00 0.00 0.00 35 1025.7
20260906201151 22 210 33.8 49.9 0.00 0.00 0.00 35 1025.7
20260906200648 22 189 30.6 40.2 0.00 0.00 0.00 34 1025.7
20260906200143 22 205 37.0 46.7 0.00 0.00 0.00 32 1025.6
20260906195638 22 200 43.5 49.9 0.00 0.00 0.00 34 1025.7
20260906195135 22 208 30.6 49.9 0.00 0.00 0.00 35 1025.7
20260906194631 22 187 37.0 46.7 0.00 0.00 0.00 35 1025.6
20260906194126 22 188 40.2 49.9 0.00 0.00 0.00 36 1025.7
20260906193626 22 194 40.2 53.1 0.00 0.00 0.00 37 1025.9
20260906193121 22 188 43.5 54.7 0.00 0.00 0.00 32 1025.9
20260906192617 22 218 27.4 51.5 0.00 0.00 0.00 33 1025.9
20260906192115 22 207 49.9 57.9 0.00 0.00 0.00 31 1025.7
20260906191611 22 200 46.7 51.5 0.00 0.00 0.00 34 1026.0
20260906191111 22 197 41.8 53.1 0.00 0.00 0.00 30 1025.7
20260906190610 23 204 38.6 51.5 0.00 0.00 0.00 34 1026.1
20260906190105 22 203 33.8 51.5 0.00 0.00 0.00 32 1026.3
20260906185604 22 227 30.6 49.9 0.00 0.00 0.00 34 1026.0
20260906185103 22 205 38.6 43.5 0.00 0.00 0.00 32 1026.0
20260906184558 22 207 30.6 43.5 0.00 0.00 0.00 35 1026.0
20260906184054 22 186 37.0 51.5 0.00 0.00 0.00 30 1026.1
20260906183550 22 202 43.5 51.5 0.00 0.00 0.00 34 1026.1
20260906183046 22 219 43.5 49.9 0.00 0.00 0.00 30 1026.1
20260906182546 22 173 35.4 46.7 0.00 0.00 0.00 33 1026.2
20260906182042 22 187 33.8 41.8 0.00 0.00 0.00 31 1026.3
20260906181537 22 205 43.5 53.1 0.00 0.00 0.00 30 1026.5
20260906181033 22 200 43.5 48.3 0.00 0.00 0.00 31 1026.5
20260906180528 22 192 30.6 51.5 0.00 0.00 0.00 29 1026.3
20260906180027 22 182 30.6 41.8 0.00 0.00 0.00 34 1026.2
20260906175526 22 208 32.2 43.5 0.00 0.00 0.00 31 1026.5
20260906175026 22 191 32.2 40.2 0.00 0.00 0.00 33 1026.3
20260906174524 22 203 40.2 43.5 0.00 0.00 0.00 32 1026.7
20260906174019 22 197 27.4 38.6 0.00 0.00 0.00 36 1026.6
20260906173514 22 176 32.2 37.0 0.00 0.00 0.00 33 1026.7
20260906173010 22 194 38.6 41.8 0.00 0.00 0.00 29 1027.1
20260906172505 22 202 32.2 37.0 0.00 0.00 0.00 34 1026.8
20260906172000 22 188 35.4 38.6 0.00 0.00 0.00 31 1026.6
20260906171454 22 217 30.6 37.0 0.00 0.00 0.00 33 1026.7
20260906170950 22 183 40.2 43.5 0.00 0.00 0.00 32 1026.8
20260906170446 22 187 29.0 40.2 0.00 0.00 0.00 36 1026.9
20260906165943 22 217 25.7 46.7 0.00 0.00 0.00 34 1026.9
20260906165442 21 184 25.7 33.8 0.00 0.00 0.00 37 1027.2
20260906164937 21 190 32.2 35.4 0.00 0.00 0.00 34 1027.1
20260906164436 21 184 29.0 38.6 0.00 0.00 0.00 34 1027.2
20260906163933 21 205 27.4 38.6 0.00 0.00 0.00 36 1027.3
20260906163428 21 188 35.4 37.0 0.00 0.00 0.00 35 1027.3
20260906162926 21 186 33.8 43.5 0.00 0.00 0.00 39 1027.1
20260906162425 21 185 37.0 41.8 0.00 0.00 0.00 39 1027.3
20260906161920 21 195 35.4 43.5 0.00 0.00 0.00 36 1027.3
20260906161419 21 182 38.6 40.2 0.00 0.00 0.00 38 1027.3
20260906160919 21 156 33.8 40.2 0.00 0.00 0.00 38 1027.1
20260906160412 21 172 35.4 41.8 0.00 0.00 0.00 36 1027.3
20260906155911 21 181 40.2 43.5 0.00 0.00 0.00 35 1027.4
20260906155404 21 188 30.6 37.0 0.00 0.00 0.00 39 1027.3
20260906154901 20 174 25.7 33.8 0.00 0.00 0.00 40 1027.5
20260906154355 21 183 22.5 33.8 0.00 0.00 0.00 40 1027.4
20260906153854 20 179 24.1 30.6 0.00 0.00 0.00 36 1027.4
20260906153353 18 196 12.9 16.1 0.00 0.00 0.00 44 1027.7
20260906152849 18 199 12.9 14.5 0.00 0.00 0.00 44 1027.7
20260906152348 20 195 8.0 9.7 0.00 0.00 0.00 40 1027.9
20260906151848 20 155 1.6 1.6 0.00 0.00 0.00 37 1027.9
20260906151344 18 149 0.0 1.6 0.00 0.00 0.00 40 1028.0
20260906150839 18 217 1.6 4.8 0.00 0.00 0.00 39 1028.0
20260906150335 18 0 4.8 4.8 0.00 0.00 0.00 39 1027.8
20260906145834 18 179 0.0 1.6 0.00 0.00 0.00 42 1027.9
20260906145332 18 165 1.6 3.2 0.00 0.00 0.00 42 1027.7
20260906144828 18 200 0.0 0.0 0.00 0.00 0.00 43 1027.8
20260906144323 17 185 0.0 0.0 0.00 0.00 0.00 48 1027.8
20260906143822 17 100 1.6 3.2 0.00 0.00 0.00 50 1027.7
20260906143319 17 163 0.0 0.0 0.00 0.00 0.00 54 1028.0
20260906142814 16 249 1.6 3.2 0.00 0.00 0.00 51 1027.8
20260906142309 16 96 1.6 3.2 0.00 0.00 0.00 47 1027.7
20260906141808 15 110 1.6 4.8 0.00 0.00 0.00 46 1027.7
20260906141303 15 6 3.2 4.8 0.00 0.00 0.00 49 1027.9
20260906140802 15 79 3.2 3.2 0.00 0.00 0.00 51 1027.7
20260906140257 14 210 0.0 3.2 0.00 0.00 0.00 48 1027.7
20260906135754 13 244 0.0 6.4 0.00 0.00 0.00 56 1027.7
20260906135250 13 24 6.4 6.4 0.00 0.00 0.00 55 1027.9
20260906134745 14 22 4.8 6.4 0.00 0.00 0.00 53 1027.7
20260906134240 14 3 4.8 4.8 0.00 0.00 0.00 49 1027.5
20260906133736 13 104 1.6 3.2 0.00 0.00 0.00 51 1027.7
20260906133231 13 178 0.0 0.0 0.00 0.00 0.00 51 1027.9
20260906132726 12 192 0.0 0.0 0.00 0.00 0.00 57 1027.8
20260906132222 13 203 0.0 0.0 0.00 0.00 0.00 52 1027.7
20260906131717 12 7 3.2 4.8 0.00 0.00 0.00 55 1027.7
20260906131212 12 301 3.2 3.2 0.00 0.00 0.00 51 1027.4
20260906130708 13 358 3.2 4.8 0.00 0.00 0.00 52 1027.5
20260906130203 13 240 1.6 3.2 0.00 0.00 0.00 52 1027.3
20260906125701 12 239 1.6 1.6 0.00 0.00 0.00 54 1027.3
20260906125200 12 242 1.6 3.2 0.00 0.00 0.00 50 1027.5
20260906124655 12 207 0.0 0.0 0.00 0.00 0.00 53 1027.4
20260906124150 12 211 0.0 0.0 0.00 0.00 0.00 53 1027.3
20260906123649 12 172 1.6 1.6 0.00 0.00 0.00 55 1027.5
20260906123145 13 204 0.0 0.0 0.00 0.00 0.00 55 1027.4
20260906122644 13 285 3.2 3.2 0.00 0.00 0.00 51 1027.7
20260906122139 12 276 1.6 1.6 0.00 0.00 0.00 54 1027.3
20260906121635 13 201 0.0 0.0 0.00 0.00 0.00 53 1027.4
20260906121132 13 204 0.0 0.0 0.00 0.00 0.00 54 1027.5
20260906120627 13 210 0.0 0.0 0.00 0.00 0.00 54 1027.5
20260906120125 13 213 0.0 0.0 0.00 0.00 0.00 51 1027.5
20260906115625 13 193 0.0 0.0 0.00 0.00 0.00 50 1027.7
20260906115120 13 243 0.0 0.0 0.00 0.00 0.00 51 1027.4
20260906114619 13 198 0.0 0.0 0.00 0.00 0.00 53 1027.5
20260906114115 13 150 0.0 1.6 0.00 0.00 0.00 57 1027.5
20260906113614 13 214 1.6 1.6 0.00 0.00 0.00 56 1027.5
20260906113109 13 180 0.0 1.6 0.00 0.00 0.00 48 1027.7
20260906112609 13 238 3.2 3.2 0.00 0.00 0.00 51 1027.4
20260906112105 13 347 1.6 4.8 0.00 0.00 0.00 50 1027.8
20260906111605 15 340 4.8 6.4 0.00 0.00 0.00 45 1027.8
20260906111100 15 294 3.2 4.8 0.00 0.00 0.00 43 1027.8
20260906110600 15 335 4.8 4.8 0.00 0.00 0.00 44 1027.7
20260906110100 15 314 6.4 6.4 0.00 0.00 0.00 44 1027.7
20260906105554 14 228 1.6 1.6 0.00 0.00 0.00 46 1027.3
20260906105051 14 212 0.0 3.2 0.00 0.00 0.00 46 1027.3
20260906104549 14 311 6.4 6.4 0.00 0.00 0.00 45 1027.4
20260906104044 13 339 6.4 6.4 0.00 0.00 0.00 49 1027.4
20260906103542 13 348 6.4 6.4 0.00 0.00 0.00 54 1027.5
20260906103037 13 300 1.6 3.2 0.00 0.00 0.00 53 1027.4
20260906102538 13 208 0.0 3.2 0.00 0.00 0.00 55 1027.7
20260906102033 14 96 0.0 3.2 0.00 0.00 0.00 51 1027.5
20260906101533 14 198 0.0 0.0 0.00 0.00 0.00 49 1027.4
20260906101027 15 210 0.0 0.0 0.00 0.00 0.00 47 1027.4
20260906100524 15 204 0.0 0.0 0.00 0.00 0.00 47 1027.3
20260906100023 15 230 1.6 3.2 0.00 0.00 0.00 46 1027.4
20260906095518 15 343 6.4 9.7 0.00 0.00 0.00 46 1027.3
20260906095014 16 247 3.2 3.2 0.00 0.00 0.00 46 1027.2
20260906094512 15 243 1.6 1.6 0.00 0.00 0.00 46 1027.1
20260906094008 15 310 6.4 6.4 0.00 0.00 0.00 47 1027.3
20260906093504 16 306 4.8 6.4 0.00 0.00 0.00 44 1027.1
20260906092959 17 143 3.2 3.2 0.00 0.00 0.00 44 1027.1
20260906092459 16 216 3.2 4.8 0.00 0.00 0.00 46 1027.1
20260906091954 15 223 1.6 4.8 0.00 0.00 0.00 46 1027.2
20260906091450 16 255 9.7 9.7 0.00 0.00 0.00 46 1027.2
20260906090947 16 192 1.6 3.2 0.00 0.00 0.00 46 1027.1
20260906090441 16 231 3.2 3.2 0.00 0.00 0.00 46 1027.1
20260906085941 16 195 3.2 4.8 0.00 0.00 0.00 44 1027.2
20260906085440 17 150 0.0 1.6 0.00 0.00 0.00 44 1027.2
20260906084940 17 121 3.2 6.4 0.00 0.00 0.00 42 1027.1
20260906084435 16 186 3.2 4.8 0.00 0.00 0.00 43 1027.2
20260906083933 16 183 3.2 3.2 0.00 0.00 0.00 46 1027.1
20260906083430 16 219 1.6 3.2 0.00 0.00 0.00 43 1027.1
20260906082929 16 216 3.2 3.2 0.00 0.00 0.00 45 1027.2
20260906082424 16 223 1.6 1.6 0.00 0.00 0.00 45 1027.1
20260906081920 16 195 0.0 1.6 0.00 0.00 0.00 43 1027.2
20260906081415 17 192 0.0 3.2 0.00 0.00 0.00 42 1027.1
20260906080911 17 130 3.2 6.4 0.00 0.00 0.00 41 1027.2
20260906080408 17 160 1.6 3.2 0.00 0.00 0.00 43 1027.4
20260906075906 16 114 1.6 4.8 0.00 0.00 0.00 43 1027.2
20260906075401 17 236 1.6 4.8 0.00 0.00 0.00 43 1027.2
20260906074857 17 119 3.2 6.4 0.00 0.00 0.00 42 1027.1
20260906074356 16 142 4.8 6.4 0.00 0.00 0.00 43 1027.2
20260906073855 17 267 3.2 4.8 0.00 0.00 0.00 39 1027.2
20260906073350 17 183 3.2 3.2 0.00 0.00 0.00 46 1026.9
20260906072847 17 172 1.6 1.6 0.00 0.00 0.00 45 1027.1
20260906072342 17 193 0.0 0.0 0.00 0.00 0.00 43 1027.2
20260906071838 16 169 1.6 3.2 0.00 0.00 0.00 43 1027.2
20260906071333 17 9 3.2 3.2 0.00 0.00 0.00 43 1027.2
20260906070829 17 132 4.8 6.4 0.00 0.00 0.00 47 1027.2
20260906070325 17 154 1.6 3.2 0.00 0.00 0.00 45 1027.3
20260906065820 17 160 1.6 3.2 0.00 0.00 0.00 41 1026.9
20260906065315 16 191 0.0 1.6 0.00 0.00 0.00 42 1027.2
20260906064811 17 161 0.0 1.6 0.00 0.00 0.00 48 1026.8
20260906064307 17 204 0.0 3.2 0.00 0.00 0.00 47 1027.2
20260906063806 16 163 1.6 3.2 0.00 0.00 0.00 50 1027.1
20260906063302 16 181 1.6 1.6 0.00 0.00 0.00 46 1027.1
20260906062757 16 211 0.0 0.0 0.00 0.00 0.00 45 1027.2
20260906062256 16 170 0.0 1.6 0.00 0.00 0.00 44 1026.8
20260906061752 17 252 1.6 3.2 0.00 0.00 0.00 43 1027.2
20260906061248 17 120 3.2 3.2 0.00 0.00 0.00 45 1027.2
20260906060743 17 174 0.0 1.6 0.00 0.00 0.00 43 1026.9
20260906060241 17 134 1.6 3.2 0.00 0.00 0.00 43 1027.1
20260906055736 17 150 0.0 1.6 0.00 0.00 0.00 43 1026.8
20260906055231 16 159 1.6 3.2 0.00 0.00 0.00 43 1026.9
20260906054726 17 346 4.8 6.4 0.00 0.00 0.00 41 1026.8
20260906054222 18 11 4.8 6.4 0.00 0.00 0.00 41 1026.9
20260906053718 18 199 4.8 4.8 0.00 0.00 0.00 46 1026.9
20260906053213 18 205 6.4 6.4 0.00 0.00 0.00 38 1026.9
20260906052708 18 208 6.4 6.4 0.00 0.00 0.00 37 1026.9
20260906052205 18 192 4.8 4.8 0.00 0.00 0.00 35 1026.9
20260906051702 18 211 1.6 4.8 0.00 0.00 0.00 34 1026.9
20260906051200 18 207 4.8 6.4 0.00 0.00 0.00 32 1026.9
20260906050656 18 210 3.2 6.4 0.00 0.00 0.00 31 1027.2
20260906050151 18 191 8.0 11.3 0.00 0.00 0.00 33 1027.1
20260906045649 18 201 8.0 9.7 0.00 0.00 0.00 40 1026.9
20260906045145 19 184 8.0 9.7 0.00 0.00 0.00 38 1027.1
20260906044641 19 190 8.0 9.7 0.00 0.00 0.00 32 1026.9
20260906044136 20 202 6.4 9.7 0.00 0.00 0.00 36 1027.2
20260906043632 19 206 8.0 9.7 0.00 0.00 0.00 31 1027.1
20260906043127 19 217 1.6 3.2 0.00 0.00 0.00 30 1027.1
20260906042627 20 197 6.4 6.4 0.00 0.00 0.00 29 1026.9
20260906042122 20 190 4.8 6.4 0.00 0.00 0.00 31 1026.8
20260906041618 20 194 6.4 6.4 0.00 0.00 0.00 28 1026.8
20260906041118 20 212 3.2 9.7 0.00 0.00 0.00 30 1026.8
20260906040613 20 199 8.0 11.3 0.00 0.00 0.00 27 1026.8
20260906040109 20 211 4.8 6.4 0.00 0.00 0.00 29 1026.7
20260906035604 20 214 4.8 6.4 0.00 0.00 0.00 29 1026.7
20260906035059 18 198 6.4 9.7 0.00 0.00 0.00 32 1026.7
20260906034559 18 200 3.2 4.8 0.00 0.00 0.00 37 1026.7
20260906034054 19 186 0.0 0.0 0.00 0.00 0.00 34 1026.6
20260906033549 19 205 1.6 3.2 0.00 0.00 0.00 32 1026.3
20260906033045 18 186 3.2 4.8 0.00 0.00 0.00 32 1026.6
20260906032541 18 200 0.0 0.0 0.00 0.00 0.00 33 1026.5
20260906032036 19 257 1.6 3.2 0.00 0.00 0.00 37 1026.5
20260906031531 20 208 0.0 1.6 0.00 0.00 0.00 29 1026.3
20260906031027 21 207 3.2 3.2 0.00 0.00 0.00 25 1026.3
20260906030526 21 193 6.4 6.4 0.00 0.00 0.00 24 1026.2
20260906030026 21 207 6.4 6.4 0.00 0.00 0.00 24 1026.5
20260906025526 21 195 6.4 9.7 0.00 0.00 0.00 24 1026.2
20260906025024 21 200 6.4 6.4 0.00 0.00 0.00 25 1026.1
20260906024519 20 211 3.2 6.4 0.00 0.00 0.00 26 1025.9
20260906024019 21 204 0.0 0.0 0.00 0.00 0.00 28 1025.7
20260906023516 21 188 1.6 3.2 0.00 0.00 0.00 26 1025.7
20260906023010 21 195 1.6 4.8 0.00 0.00 0.00 25 1025.5
20260906022506 22 185 3.2 3.2 0.00 0.00 0.00 25 1025.6
20260906022001 22 185 3.2 4.8 0.00 0.00 0.00 25 1025.3
20260906021455 22 151 4.8 6.4 0.00 0.00 0.00 26 1025.3
20260906020950 22 165 3.2 4.8 0.00 0.00 0.00 26 1025.4
20260906020444 22 151 3.2 3.2 0.00 0.00 0.00 26 1025.3
20260906015944 22 184 3.2 3.2 0.00 0.00 0.00 26 1025.0
20260906015443 22 147 3.2 3.2 0.00 0.00 0.00 26 1025.1
20260906014943 22 146 4.8 4.8 0.00 0.00 0.00 24 1025.5
20260906014438 23 157 3.2 3.2 0.00 0.00 0.00 26 1025.4
20260906013934 23 151 1.6 4.8 0.00 0.00 0.00 25 1025.4
20260906013429 23 192 0.0 0.0 0.00 0.00 0.00 22 1025.4
20260906012925 23 196 0.0 0.0 0.00 0.00 0.00 22 1025.4
20260906012425 23 204 1.6 3.2 0.00 0.00 0.00 23 1025.4
20260906011924 24 201 3.2 4.8 0.00 0.00 0.00 21 1025.6
20260906011419 25 217 4.8 6.4 0.00 0.00 0.00 21 1025.3
20260906010915 25 207 3.2 6.4 0.00 0.00 0.00 20 1025.4
20260906010410 25 209 3.2 6.4 0.00 0.00 0.00 21 1025.5
20260906005906 25 200 6.4 9.7 0.00 0.00 0.00 19 1025.6
20260906005405 25 202 3.2 6.4 0.00 0.00 0.00 20 1025.5
20260906004904 25 207 6.4 12.9 0.00 0.00 0.00 20 1025.3
20260906004359 25 192 8.0 16.1 0.00 0.00 0.00 20 1025.3
20260906003854 25 193 6.4 14.5 0.00 0.00 0.00 19 1025.5
20260906003349 26 206 17.7 27.4 0.00 0.00 0.00 22 1025.7
20260906002845 25 230 9.7 12.9 0.00 0.00 0.00 18 1025.4
20260906002344 26 215 12.9 17.7 0.00 0.00 0.00 19 1025.4
20260906001840 26 200 6.4 16.1 0.00 0.00 0.00 19 1025.5
20260906001335 26 200 8.0 14.5 0.00 0.00 0.00 20 1025.3
20260906000830 26 256 4.8 11.3 0.00 0.00 0.00 19 1025.3
20260906000326 26 193 9.7 16.1 0.00 0.00 0.00 20 1025.3
20260905235820 26 217 8.0 20.9 0.00 0.00 0.00 20 1025.3
20260905235320 26 206 8.0 22.5 0.00 0.00 0.00 21 1025.3